Medford, OR

10:38 PM PDT on May 27, 2018 (GMT -0700)
Rogue Valley International-Medford

Weather History for KMFR - October, 2012

Change the Weather History Date:

Sunday, October 7, 2012

  Actual Average Record
Temperature  
Mean Temperature 63 °F 60 °F  
Max Temperature 84 °F 75 °F 95 °F (1936)
Min Temperature 41 °F 44 °F 27 °F (1970)
Degree Days  
Heating Degree Days 2 6  
Month to date heating degree days 9 36  
Since 1 July heating degree days 10 105  
Cooling Degree Days 0 1  
Month to date cooling degree days 11 7  
Year to date cooling degree days 960 826  
Growing Degree Days 12 (Base 50)    
Moisture  
Dew Point 32 °F    
Average Humidity 43    
Maximum Humidity 73    
Minimum Humidity 12    
Precipitation  
Precipitation 0.00 in 0.02 in 0.67 in (1962)
Month to date precipitation 0.00 0.15  
Year to date precipitation 14.12 10.86  
Snow  
Snow 0.00 in 0.00 in - ()
Month to date snowfall 0.0 0.0  
Since 1 July snowfall 0.0 0.0  
Snow Depth 0.00 in    
Sea Level Pressure  
Sea Level Pressure 29.94 in    
Wind  
Wind Speed 2 mph (WSW)    
Max Wind Speed 7 mph    
Max Gust Speed 9 mph    
Visibility 10 miles    
Events      
T = Trace of Precipitation, MM = Missing Value Source: NWS Daily Summary

Daily Weather History Graph

Daily Weather History Graph

Search for Another Location

Airport or City:

Astronomy

Oct. 07, 2012 Rise Set
Actual Time 7:15 AM PDT 6:41 PM PDT
Civil Twilight 6:47 AM PDT 7:09 PM PDT
Nautical Twilight 6:15 AM PDT 7:42 PM PDT
Astronomical Twilight 5:42 AM PDT 8:14 PM PDT
Moon 11:54 PM PDT (10/7) 2:01 PM PDT (10/7)
Length of Visible Light 12h 21m
Length of Day
11h 25m
Waning Gibbous, 55% of the Moon is Illuminated
Oct 7
Waning Gibbous
Oct 8
Last Quarter
Oct 15
New
Oct 21
First Quarter
Oct 29
Full

Hourly Weather History & Observations

Time (PDT) Temp. Windchill Dew Point Humidity Pressure Visibility Wind Dir Wind Speed Gust Speed Precip Events Conditions
12:53 AM 51.1 °F - 37.0 °F 59% 29.99 in 10.0 mi Calm Calm - N/A   Clear
1:53 AM 50.0 °F - 36.0 °F 59% 30.00 in 10.0 mi Calm Calm - N/A   Clear
2:53 AM 50.0 °F - 37.9 °F 63% 29.99 in 10.0 mi Calm Calm - N/A   Clear
3:53 AM 48.0 °F - 36.0 °F 63% 29.99 in 10.0 mi Calm Calm - N/A   Clear
4:53 AM 46.0 °F - 36.0 °F 68% 30.00 in 7.0 mi Calm Calm - N/A   Clear
5:53 AM 44.1 °F - 35.1 °F 71% 30.00 in 10.0 mi Calm Calm - N/A   Clear
6:53 AM 41.0 °F 39.0 °F 34.0 °F 76% 30.02 in 10.0 mi North 3.5 mph - N/A   Clear
7:53 AM 42.1 °F - 34.0 °F 73% 30.04 in 10.0 mi Calm Calm - N/A   Clear
8:53 AM 48.0 °F - 34.0 °F 58% 30.04 in 10.0 mi Calm Calm - N/A   Clear
9:53 AM 52.0 °F - 32.0 °F 47% 30.04 in 10.0 mi Calm Calm - N/A   Clear
10:53 AM 57.9 °F - 30.0 °F 35% 30.01 in 10.0 mi Calm Calm - N/A   Clear
11:53 AM 64.0 °F - 30.0 °F 28% 29.98 in 10.0 mi Variable 3.5 mph - N/A   Clear
12:53 PM 71.1 °F - 28.9 °F 21% 29.95 in 10.0 mi Calm Calm - N/A   Clear
1:53 PM 75.0 °F - 25.0 °F 16% 29.91 in 10.0 mi Calm Calm - N/A   Clear
2:53 PM 80.1 °F - 25.0 °F 13% 29.87 in 10.0 mi WNW 3.5 mph - N/A   Clear
3:53 PM 82.0 °F - 25.0 °F 12% 29.85 in 10.0 mi Calm Calm - N/A   Clear
4:53 PM 82.9 °F - 26.1 °F 13% 29.83 in 10.0 mi WNW 4.6 mph - N/A   Clear
5:53 PM 82.0 °F - 28.9 °F 14% 29.83 in 10.0 mi WNW 4.6 mph - N/A   Clear
6:53 PM 75.9 °F - 33.1 °F 21% 29.84 in 10.0 mi WSW 3.5 mph - N/A   Clear
7:53 PM 71.1 °F - 35.1 °F 27% 29.86 in 10.0 mi South 4.6 mph - N/A   Clear
8:53 PM 66.0 °F - 36.0 °F 33% 29.88 in 10.0 mi South 4.6 mph - N/A   Clear
9:53 PM 62.1 °F - 36.0 °F 38% 29.90 in 10.0 mi Calm Calm - N/A   Clear
10:53 PM 57.9 °F - 34.0 °F 41% 29.90 in 10.0 mi Calm Calm - N/A   Clear
11:53 PM 55.0 °F - 35.1 °F 47% 29.91 in 10.0 mi SE 3.5 mph - N/A   Clear